Find SITRO-AIS-14

NORAD ID: 61752 Int'l Des: 2024-199 Owner: SITRO Country: RU Constellation: sitronics operational
LEOCIRCULARRETROGRADESSO

リアルタイム位置

3D地球を読み込み中...

SITRO-AIS-14について

説明を読み込み中...

次回通過

Passes for default location (London). Set your location on the main map for personalized predictions.

高度履歴

Loading altitude history...

軌道要素

1 61752U 24199T 26105.24382192 .00002017 00000-0 17828-3 0 9990
2 61752 97.3287 308.5674 0004504 282.1523 77.9195 14.97358258125703
Epoch: Apr 15, 2026 • Age: 5 hours

現在のステータス

高度 591.7 km
速度 7.57 km/s
衛星直下点 82.31°N, 169.58°W
打ち上げ日 Nov 4, 2024
運用期間 1.4 years
タイプ other

技術仕様

分類 Payload
質量 3.00 kg
乾燥質量 3.00 kg
総質量 3.00 kg
長さ 0.30 m
直径 0.10 m
スパン 0.30 m
形状 Box
製造者 SPUT
バスタイプ Cubesat 3U
フェーズステータス In Orbit
所有者/国 SITRO/RU

Most Searched